Time,TemperatureF,DewpointF,PressureIn,WindDirection,WindDirectionDegrees,WindSpeedMPH,WindSpeedGustMPH,Humidity,HourlyPrecipIn,Conditions,Clouds,dailyrainin,SolarRadiationWatts/m^2,SoftwareType,DateUTC
2013-10-01 16:52:00,97.0,45.0,-100.00,SSW,192,7.0,17.0,17,0.00,,,0.00,586.000000,,2013-10-01 23:52:00,
2013-10-01 17:02:00,97.0,45.0,-100.00,SSW,192,7.0,17.0,17,0.00,,,0.00,586.000000,,2013-10-02 00:02:00,
2013-10-01 17:12:00,97.0,45.0,-100.00,SSW,192,7.0,17.0,17,0.00,,,0.00,586.000000,,2013-10-02 00:12:00,
2013-10-01 17:21:00,97.0,45.0,-100.00,SSW,192,7.0,17.0,17,0.00,,,0.00,586.000000,,2013-10-02 00:21:00,
2013-10-01 17:52:00,96.0,47.0,-100.00,SW,216,8.0,15.0,19,0.00,,,0.00,324.000000,,2013-10-02 00:52:00,
2013-10-01 18:01:00,96.0,47.0,-100.00,SW,216,8.0,15.0,19,0.00,,,0.00,324.000000,,2013-10-02 01:01:00,
2013-10-01 18:12:00,96.0,47.0,-100.00,SW,216,8.0,15.0,19,0.00,,,0.00,324.000000,,2013-10-02 01:12:00,
2013-10-01 18:21:00,96.0,47.0,-100.00,SW,216,8.0,15.0,19,0.00,,,0.00,324.000000,,2013-10-02 01:21:00,
2013-10-01 18:52:00,92.0,44.0,-100.00,SSW,194,7.0,15.0,19,0.00,,,0.00,58.000000,,2013-10-02 01:52:00,
2013-10-01 19:02:00,92.0,44.0,-100.00,SSW,194,7.0,15.0,19,0.00,,,0.00,58.000000,,2013-10-02 02:02:00,
2013-10-01 19:11:00,92.0,44.0,-100.00,SSW,194,7.0,15.0,19,0.00,,,0.00,58.000000,,2013-10-02 02:11:00,
2013-10-01 19:22:00,92.0,44.0,-100.00,SSW,194,7.0,15.0,19,0.00,,,0.00,58.000000,,2013-10-02 02:22:00,
2013-10-01 19:52:00,87.0,46.0,-100.00,SSW,200,9.0,15.0,24,0.00,,,0.00,0.000000,,2013-10-02 02:52:00,
2013-10-01 20:02:00,87.0,46.0,-100.00,SSW,200,9.0,15.0,24,0.00,,,0.00,0.000000,,2013-10-02 03:02:00,
2013-10-01 20:12:00,87.0,46.0,-100.00,SSW,200,9.0,15.0,24,0.00,,,0.00,0.000000,,2013-10-02 03:12:00,
2013-10-01 20:22:00,87.0,46.0,-100.00,SSW,200,9.0,15.0,24,0.00,,,0.00,0.000000,,2013-10-02 03:22:00,
2013-10-01 20:54:00,86.0,44.0,-100.00,SW,216,10.0,16.0,23,0.00,,,0.00,0.000000,,2013-10-02 03:54:00,
2013-10-01 21:05:00,86.0,44.0,-100.00,SW,216,10.0,16.0,23,0.00,,,0.00,0.000000,,2013-10-02 04:05:00,
2013-10-01 21:13:00,86.0,44.0,-100.00,SW,216,10.0,16.0,23,0.00,,,0.00,0.000000,,2013-10-02 04:13:00,
2013-10-01 21:24:00,86.0,44.0,-100.00,SW,216,10.0,16.0,23,0.00,,,0.00,0.000000,,2013-10-02 04:24:00,
2013-10-01 21:54:00,82.0,44.0,-100.00,SW,222,11.0,17.0,26,0.00,,,0.00,0.000000,,2013-10-02 04:54:00,
2013-10-01 22:04:00,82.0,44.0,-100.00,SW,222,11.0,17.0,26,0.00,,,0.00,0.000000,,2013-10-02 05:04:00,
2013-10-01 22:13:00,82.0,44.0,-100.00,SW,222,11.0,17.0,26,0.00,,,0.00,0.000000,,2013-10-02 05:13:00,
2013-10-01 22:22:00,82.0,44.0,-100.00,SW,222,11.0,17.0,26,0.00,,,0.00,0.000000,,2013-10-02 05:22:00,
2013-10-01 22:53:00,82.0,44.0,-100.00,SSW,201,4.0,15.0,26,0.00,,,0.00,0.000000,,2013-10-02 05:53:00,
2013-10-01 23:03:00,82.0,44.0,-100.00,SSW,201,4.0,15.0,26,0.00,,,0.00,0.000000,,2013-10-02 06:03:00,
2013-10-01 23:12:00,82.0,44.0,-100.00,SSW,201,4.0,15.0,26,0.00,,,0.00,0.000000,,2013-10-02 06:12:00,
2013-10-01 23:21:00,82.0,44.0,-100.00,SSW,201,4.0,15.0,26,0.00,,,0.00,0.000000,,2013-10-02 06:21:00,
2013-10-01 23:52:00,80.0,43.0,-100.00,South,191,3.0,8.0,27,0.00,,,-99.99,0.000000,,2013-10-02 06:52:00,